Location: Arthurs Seat
(13.1500°N, 59.6000°W)
Time: 01:39:36
(UTC+00:00)

Cosmos 1656 Rocket - Pass Details

Date: 25 August 2019
Orbit: 795 x 847 km, 71.1° (Epoch: 19 September)

Event Time Altitude Azimuth Distance (km) Brightness Sun altitude
Rises 23:26:53 0° 337° (NNW) 3,356 7.4 -18.1°
Reaches altitude 10° 23:29:22 10° 333° (NNW) 2,414 6.7 -18.7°
Maximum altitude 23:34:46 57° 256° (WSW) 955 4.2 -19.9°
Drops below altitude 10° 23:40:05 10° 178° (S) 2,379 5.9 -21.2°
Enters shadow 23:40:50 - 176° (S) 2,659 6.1 -21.4°
